logo
Rechercher aéroport 
image banner adimage banner adimage banner ad
image banner ad

06CA - Sce Solar I

Situé à Yermo, United States

ICAO - 06CA, IATA -

Données fournies par Airmate  

Information générale

Coordonnées: N34°52'8" W116°49'55"
Élévation : 1942 feet MSL.
Variation magnétique : 14° East
Voir autres Aéroports à California

Données opérationnelles

Special qualification required
Heure actuelle UTC:
Heure actuelle locale:
Météo à : KDAG - Barstow-Daggett ( 4 km )
METAR: KDAG 131050Z AUTO 24007KT 10SM CLR 21/17 A2988 RMK AO2 SLP097 T02110172
TAF: KDAG 202320Z 2100/2124 32007KT P6SM SKC FM210500 28015KT P6SM SKC
Voir NOTAMs / SUP AIP / TFR affectant cet aéroport [VIEW]
Fréquences de communication: [VIEW]

Pistes:

Coordonnées de l'aéroport

Adresse: Yermo United States

Vue satellite de 06CA